Time,TemperatureF,DewpointF,PressureIn,WindDirection,WindDirectionDegrees,WindSpeedMPH,WindSpeedGustMPH,Humidity,HourlyPrecipIn,Conditions,Clouds,dailyrainin,SolarRadiationWatts/m^2,SoftwareType,DateUTC
2013-09-18 00:00:00,45.2,43.0,30.34,WNW,286,0.0,0.0,92,0.00,,,0.00,0,weatherlink.com 1.10,2013-09-18 04:00:00,
2013-09-18 00:15:00,45.1,43.0,30.34,WNW,286,0.0,0.0,93,0.00,,,0.00,0,weatherlink.com 1.10,2013-09-18 04:15:00,
2013-09-18 00:30:00,45.1,43.0,30.35,WNW,286,0.0,0.0,93,0.00,,,0.00,0,weatherlink.com 1.10,2013-09-18 04:30:00,
2013-09-18 00:45:00,44.9,43.0,30.34,WNW,286,0.0,0.0,93,0.00,,,0.00,0,weatherlink.com 1.10,2013-09-18 04:45:00,
2013-09-18 01:00:00,44.7,43.0,30.34,WNW,286,0.0,0.0,93,0.00,,,0.00,0,weatherlink.com 1.10,2013-09-18 05:00:00,
2013-09-18 01:15:00,44.5,43.0,30.34,WNW,286,0.0,0.0,93,0.00,,,0.00,0,weatherlink.com 1.10,2013-09-18 05:15:00,
2013-09-18 01:30:00,44.5,43.0,30.34,WNW,286,0.0,0.0,94,0.00,,,0.00,0,weatherlink.com 1.10,2013-09-18 05:30:00,
2013-09-18 01:45:00,44.3,43.0,30.34,WNW,286,0.0,0.0,94,0.00,,,0.00,0,weatherlink.com 1.10,2013-09-18 05:45:00,
2013-09-18 02:00:00,44.2,43.0,30.34,WNW,286,0.0,0.0,94,0.00,,,0.00,0,weatherlink.com 1.10,2013-09-18 06:00:00,
2013-09-18 02:15:00,44.0,42.0,30.34,WNW,286,0.0,0.0,94,0.00,,,0.00,0,weatherlink.com 1.10,2013-09-18 06:15:00,
2013-09-18 02:30:00,44.0,42.0,30.34,WNW,286,0.0,0.0,94,0.00,,,0.00,0,weatherlink.com 1.10,2013-09-18 06:30:00,
2013-09-18 02:45:00,44.1,43.0,30.34,WNW,286,0.0,0.0,94,0.00,,,0.00,0,weatherlink.com 1.10,2013-09-18 06:45:00,
2013-09-18 03:00:00,44.2,42.0,30.34,WNW,286,0.0,0.0,93,0.00,,,0.00,0,weatherlink.com 1.10,2013-09-18 07:00:00,
2013-09-18 03:15:00,44.3,42.0,30.33,WNW,286,0.0,0.0,93,0.00,,,0.00,0,weatherlink.com 1.10,2013-09-18 07:15:00,
2013-09-18 03:30:00,44.4,42.0,30.33,WNW,286,0.0,0.0,92,0.00,,,0.00,0,weatherlink.com 1.10,2013-09-18 07:30:00,
2013-09-18 03:45:00,44.6,43.0,30.33,WNW,286,0.0,1.0,92,0.00,,,0.00,0,weatherlink.com 1.10,2013-09-18 07:45:00,
2013-09-18 04:00:00,44.8,42.0,30.33,WNW,286,0.0,1.0,91,0.00,,,0.00,0,weatherlink.com 1.10,2013-09-18 08:00:00,
2013-09-18 04:15:00,45.2,43.0,30.32,WNW,286,0.0,1.0,90,0.00,,,0.00,0,weatherlink.com 1.10,2013-09-18 08:15:00,
2013-09-18 04:30:00,45.3,43.0,30.32,WNW,286,0.0,1.0,90,0.00,,,0.00,0,weatherlink.com 1.10,2013-09-18 08:30:00,
2013-09-18 05:00:00,44.8,42.0,30.32,WNW,286,0.0,0.0,90,0.00,,,0.00,0,weatherlink.com 1.10,2013-09-18 09:00:00,
2013-09-18 05:15:00,44.3,42.0,30.32,WNW,286,0.0,0.0,91,0.00,,,0.00,0,weatherlink.com 1.10,2013-09-18 09:15:00,
2013-09-18 05:30:00,44.0,42.0,30.32,WNW,286,0.0,0.0,92,0.00,,,0.00,0,weatherlink.com 1.10,2013-09-18 09:30:00,
2013-09-18 05:45:00,44.1,42.0,30.32,WNW,286,0.0,0.0,93,0.00,,,0.00,0,weatherlink.com 1.10,2013-09-18 09:45:00,
2013-09-18 06:00:00,44.4,43.0,30.32,WNW,286,0.0,0.0,93,0.00,,,0.00,0,weatherlink.com 1.10,2013-09-18 10:00:00,
2013-09-18 06:15:00,44.9,43.0,30.32,WNW,286,0.0,0.0,93,0.00,,,0.00,0,weatherlink.com 1.10,2013-09-18 10:15:00,
2013-09-18 06:30:00,44.8,43.0,30.32,WNW,286,0.0,0.0,93,0.00,,,0.00,0,weatherlink.com 1.10,2013-09-18 10:30:00,
2013-09-18 06:45:00,44.5,43.0,30.33,WNW,286,0.0,0.0,93,0.00,,,0.00,5,weatherlink.com 1.10,2013-09-18 10:45:00,
2013-09-18 07:00:00,44.4,43.0,30.33,WNW,286,0.0,0.0,93,0.00,,,0.00,9,weatherlink.com 1.10,2013-09-18 11:00:00,
2013-09-18 07:15:00,44.6,43.0,30.33,WNW,286,0.0,0.0,94,0.00,,,0.00,12,weatherlink.com 1.10,2013-09-18 11:15:00,
2013-09-18 07:30:00,45.1,44.0,30.33,WNW,286,0.0,0.0,94,0.00,,,0.00,16,weatherlink.com 1.10,2013-09-18 11:30:00,
2013-09-18 07:45:00,46.5,45.0,30.33,WNW,287,0.0,1.0,94,0.00,,,0.00,21,weatherlink.com 1.10,2013-09-18 11:45:00,
2013-09-18 08:00:00,48.2,46.0,30.33,WNW,287,0.0,0.0,91,0.00,,,0.00,47,weatherlink.com 1.10,2013-09-18 12:00:00,
2013-09-18 08:15:00,49.8,46.0,30.33,WNW,287,0.0,0.0,88,0.00,,,0.00,28,weatherlink.com 1.10,2013-09-18 12:15:00,
2013-09-18 08:30:00,51.5,47.0,30.33,WNW,287,0.0,1.0,85,0.00,,,0.00,32,weatherlink.com 1.10,2013-09-18 12:30:00,
2013-09-18 08:46:00,53.5,48.0,30.33,WNW,287,0.0,1.0,81,0.00,,,0.00,32,weatherlink.com 1.10,2013-09-18 12:46:00,
2013-09-18 09:01:00,55.4,48.0,30.34,WNW,287,0.0,2.0,76,0.00,,,0.00,37,weatherlink.com 1.10,2013-09-18 13:01:00,
2013-09-18 09:16:00,57.3,48.0,30.33,West,281,0.0,5.0,70,0.00,,,0.00,35,weatherlink.com 1.10,2013-09-18 13:16:00,
2013-09-18 09:31:00,58.2,46.0,30.33,NNW,340,0.0,4.0,65,0.00,,,0.00,37,weatherlink.com 1.10,2013-09-18 13:31:00,
2013-09-18 09:46:00,59.1,47.0,30.33,NNW,344,0.0,1.0,64,0.00,,,0.00,42,weatherlink.com 1.10,2013-09-18 13:46:00,
2013-09-18 10:01:00,60.2,48.0,30.33,NNE,19,0.0,3.0,64,0.00,,,0.00,104,weatherlink.com 1.10,2013-09-18 14:01:00,
2013-09-18 10:16:00,61.2,48.0,30.32,WNW,288,0.0,5.0,62,0.00,,,0.00,519,weatherlink.com 1.10,2013-09-18 14:16:00,
2013-09-18 10:31:00,62.0,49.0,30.32,West,269,0.0,3.0,62,0.00,,,0.00,629,weatherlink.com 1.10,2013-09-18 14:31:00,
2013-09-18 10:46:00,62.8,49.0,30.32,WSW,248,0.0,3.0,62,0.00,,,0.00,664,weatherlink.com 1.10,2013-09-18 14:46:00,
2013-09-18 11:01:00,63.2,48.0,30.32,WNW,286,0.0,4.0,59,0.00,,,0.00,693,weatherlink.com 1.10,2013-09-18 15:01:00,
2013-09-18 11:31:00,63.9,48.0,30.31,SSE,167,1.0,8.0,57,0.00,,,0.00,744,weatherlink.com 1.10,2013-09-18 15:31:00,
2013-09-18 11:46:00,65.0,49.0,30.30,SSW,207,0.0,4.0,57,0.00,,,0.00,763,weatherlink.com 1.10,2013-09-18 15:46:00,
2013-09-18 12:01:00,65.7,50.0,30.30,SSE,167,0.0,5.0,57,0.00,,,0.00,775,weatherlink.com 1.10,2013-09-18 16:01:00,
2013-09-18 12:17:00,65.9,48.0,30.29,South,173,0.0,6.0,53,0.00,,,0.00,791,weatherlink.com 1.10,2013-09-18 16:17:00,
2013-09-18 12:32:00,66.4,48.0,30.29,SSE,166,0.0,7.0,51,0.00,,,0.00,796,weatherlink.com 1.10,2013-09-18 16:32:00,
2013-09-18 12:47:00,66.9,47.0,30.28,South,173,0.0,4.0,49,0.00,,,0.00,798,weatherlink.com 1.10,2013-09-18 16:47:00,
2013-09-18 13:02:00,66.8,48.0,30.28,South,173,0.0,5.0,51,0.00,,,0.00,802,weatherlink.com 1.10,2013-09-18 17:02:00,
2013-09-18 13:32:00,67.9,48.0,30.27,WNW,288,0.0,8.0,50,0.00,,,0.00,791,weatherlink.com 1.10,2013-09-18 17:32:00,
2013-09-18 13:47:00,68.6,51.0,30.26,South,179,0.0,5.0,54,0.00,,,0.00,775,weatherlink.com 1.10,2013-09-18 17:47:00,
2013-09-18 14:02:00,68.5,52.0,30.25,SSW,192,0.0,8.0,56,0.00,,,0.00,761,weatherlink.com 1.10,2013-09-18 18:02:00,
2013-09-18 14:17:00,68.4,52.0,30.25,South,182,0.0,7.0,57,0.00,,,0.00,740,weatherlink.com 1.10,2013-09-18 18:17:00,
2013-09-18 14:32:00,68.4,51.0,30.25,South,186,7.0,10.0,55,0.00,,,0.00,717,weatherlink.com 1.10,2013-09-18 18:32:00,
2013-09-18 14:47:00,68.2,52.0,30.24,South,180,2.0,10.0,56,0.00,,,0.00,693,weatherlink.com 1.10,2013-09-18 18:47:00,
2013-09-18 15:02:00,68.6,53.0,30.24,ESE,114,1.0,7.0,57,0.00,,,0.00,666,weatherlink.com 1.10,2013-09-18 19:02:00,
2013-09-18 15:18:00,68.0,52.0,30.23,SSE,168,2.0,9.0,58,0.00,,,0.00,629,weatherlink.com 1.10,2013-09-18 19:18:00,
2013-09-18 15:32:00,68.1,53.0,30.23,SSE,167,3.0,7.0,58,0.00,,,0.00,598,weatherlink.com 1.10,2013-09-18 19:32:00,
2013-09-18 15:47:00,67.8,53.0,30.22,South,183,6.0,9.0,60,0.00,,,0.00,561,weatherlink.com 1.10,2013-09-18 19:47:00,
2013-09-18 16:02:00,67.8,53.0,30.22,SSE,163,5.0,10.0,59,0.00,,,0.00,520,weatherlink.com 1.10,2013-09-18 20:02:00,
2013-09-18 16:17:00,67.7,53.0,30.22,South,169,1.0,9.0,60,0.00,,,0.00,478,weatherlink.com 1.10,2013-09-18 20:17:00,
2013-09-18 16:47:00,67.0,53.0,30.21,South,182,0.0,8.0,61,0.00,,,0.00,390,weatherlink.com 1.10,2013-09-18 20:47:00,
2013-09-18 17:02:00,66.8,53.0,30.21,South,177,3.0,8.0,62,0.00,,,0.00,341,weatherlink.com 1.10,2013-09-18 21:02:00,
2013-09-18 17:17:00,66.7,53.0,30.21,SW,232,3.0,6.0,62,0.00,,,0.00,292,weatherlink.com 1.10,2013-09-18 21:17:00,
2013-09-18 17:32:00,66.4,53.0,30.20,SSE,164,0.0,6.0,63,0.00,,,0.00,243,weatherlink.com 1.10,2013-09-18 21:32:00,
2013-09-18 17:47:00,65.9,53.0,30.21,SSE,157,2.0,7.0,64,0.00,,,0.00,192,weatherlink.com 1.10,2013-09-18 21:47:00,
2013-09-18 18:02:00,65.4,53.0,30.20,South,182,3.0,7.0,64,0.00,,,0.00,137,weatherlink.com 1.10,2013-09-18 22:02:00,
2013-09-18 18:17:00,64.8,53.0,30.20,SSE,167,0.0,6.0,66,0.00,,,0.00,83,weatherlink.com 1.10,2013-09-18 22:17:00,
2013-09-18 18:32:00,64.1,53.0,30.20,South,175,2.0,5.0,67,0.00,,,0.00,39,weatherlink.com 1.10,2013-09-18 22:32:00,
2013-09-18 18:47:00,62.9,53.0,30.20,SSE,168,0.0,7.0,69,0.00,,,0.00,9,weatherlink.com 1.10,2013-09-18 22:47:00,
2013-09-18 19:02:00,62.0,52.0,30.20,South,177,0.0,2.0,71,0.00,,,0.00,0,weatherlink.com 1.10,2013-09-18 23:02:00,
2013-09-18 19:17:00,61.0,52.0,30.20,South,175,0.0,2.0,73,0.00,,,0.00,0,weatherlink.com 1.10,2013-09-18 23:17:00,
2013-09-18 19:32:00,60.4,52.0,30.20,South,175,0.0,2.0,75,0.00,,,0.00,0,weatherlink.com 1.10,2013-09-18 23:32:00,
2013-09-18 19:47:00,59.7,52.0,30.20,South,174,0.0,2.0,76,0.00,,,0.00,0,weatherlink.com 1.10,2013-09-18 23:47:00,
2013-09-18 20:02:00,59.2,52.0,30.20,South,175,0.0,1.0,77,0.00,,,0.00,0,weatherlink.com 1.10,2013-09-19 00:02:00,
2013-09-18 20:17:00,58.3,52.0,30.20,South,175,0.0,0.0,79,0.00,,,0.00,0,weatherlink.com 1.10,2013-09-19 00:17:00,
2013-09-18 20:32:00,57.5,52.0,30.20,South,175,0.0,0.0,81,0.00,,,0.00,0,weatherlink.com 1.10,2013-09-19 00:32:00,
2013-09-18 20:47:00,56.7,51.0,30.21,South,175,0.0,0.0,82,0.00,,,0.00,0,weatherlink.com 1.10,2013-09-19 00:47:00,
2013-09-18 21:02:00,56.2,51.0,30.21,South,175,0.0,0.0,83,0.00,,,0.00,0,weatherlink.com 1.10,2013-09-19 01:02:00,
2013-09-18 21:17:00,56.2,51.0,30.21,South,175,0.0,1.0,83,0.00,,,0.00,0,weatherlink.com 1.10,2013-09-19 01:17:00,
2013-09-18 21:32:00,56.2,51.0,30.20,South,175,0.0,0.0,83,0.00,,,0.00,0,weatherlink.com 1.10,2013-09-19 01:32:00,
2013-09-18 21:47:00,55.9,51.0,30.20,South,175,0.0,0.0,84,0.00,,,0.00,0,weatherlink.com 1.10,2013-09-19 01:47:00,
2013-09-18 22:02:00,55.3,51.0,30.20,South,175,0.0,0.0,85,0.00,,,0.00,0,weatherlink.com 1.10,2013-09-19 02:02:00,
2013-09-18 22:17:00,54.7,51.0,30.20,South,175,0.0,0.0,86,0.00,,,0.00,0,weatherlink.com 1.10,2013-09-19 02:17:00,
2013-09-18 22:32:00,54.0,50.0,30.21,South,175,0.0,0.0,87,0.00,,,0.00,0,weatherlink.com 1.10,2013-09-19 02:32:00,
2013-09-18 22:47:00,53.2,50.0,30.20,South,175,0.0,0.0,88,0.00,,,0.00,0,weatherlink.com 1.10,2013-09-19 02:47:00,
2013-09-18 23:02:00,52.5,49.0,30.20,South,175,0.0,0.0,89,0.00,,,0.00,0,weatherlink.com 1.10,2013-09-19 03:02:00,
2013-09-18 23:17:00,51.9,49.0,30.20,South,175,0.0,0.0,90,0.00,,,0.00,0,weatherlink.com 1.10,2013-09-19 03:17:00,
2013-09-18 23:32:00,51.4,49.0,30.20,South,175,0.0,0.0,91,0.00,,,0.00,0,weatherlink.com 1.10,2013-09-19 03:32:00,
2013-09-18 23:47:00,50.9,48.0,30.20,South,175,0.0,0.0,91,0.00,,,0.00,0,weatherlink.com 1.10,2013-09-19 03:47:00,